Regional Weather Roundup
Issued by NWS

Home | Current Version | Previous Version | Text Only | Print | Product List | Glossary Off
Versions: 1 2 3 4 5 6 7 8 9 10 11 12 13 14 15 16 17 18 19 20 21 22 23 24 25 26 27 28 29 30 31 32 33 34 35 36 37 38 39 40 41 42 43 44 45 46 47 48 49 50

000
ASUS43 KMKX 100900
RWRWI

WISCONSIN REGIONAL WEATHER ROUNDUP
NATIONAL WEATHER SERVICE MILWAUKEE/SULLIVAN WI
300 AM CST SAT DEC 10 2016

NOTE: "FAIR" INDICATES FEW OR NO CLOUDS BELOW 12,000 FEET WITH NO
SIGNIFICANT WEATHER AND/OR OBSTRUCTIONS TO VISIBILITY.

WIZ001-002-006>008-014>016-023>028-101000-
NORTHWEST WISCONSIN

CITY           SKY/WX    TMP DP  RH WIND       PRES   REMARKS
SUPERIOR ARPT  CLOUDY     8  -2  62 NW9       30.49S WCI  -5
ASHLAND        FLURRIES   8   2  76 W9        30.46S WCI  -5
HAYWARD        CLOUDY     8  -1  66 NW5       30.43S WCI   0
SIREN          CLOUDY    11   4  75 NW5       30.46S WCI   3
CUMBERLAND     FLURRIES  10   5  79 CALM      30.42S
RICE LAKE      CLOUDY    11   6  80 N3        30.45F
CHETEK         CLOUDY    11   1  63 CALM      30.45S
LADYSMITH      CLOUDY    11   6  79 NW7       30.43S WCI   1
EAU CLAIRE     NOT AVBL
MENOMONIE      CLOUDY    12   3  67 W8        30.47S WCI   1
NEW RICHMOND   CLOUDY    10   2  69 W7        30.47S WCI  -1
OSCEOLA        MOCLDY     9   2  74 W6        30.51S WCI  -1
$$

WIZ003>005-009-010-017-018-101000-
NORTH CENTRAL WISCONSIN

CITY           SKY/WX    TMP DP  RH WIND       PRES   REMARKS
MANITOWISH WTR FLURRIES   6   1  82 NW5       30.35F WCI  -3
ARBOR VITAE    CLOUDY    11   3  70 NW10      30.35S WCI  -2
WOODRUFF       CLOUDY    11   3  70 NW10      30.35S WCI  -2
RHINELANDER    CLOUDY    10   2  69 NW5       30.35S WCI   2
EAGLE RIVER    CLOUDY     8  -2  65 NW10      30.34S WCI  -7
LAND O LAKES   CLOUDY     7   0  71 W5        30.35F WCI  -2
PHILLIPS       CLOUDY     8   2  78 NW3       30.38S
TOMAHAWK       CLOUDY    10   5  82 CALM      30.37S
MEDFORD        CLOUDY    10   1  67 W7        30.37S WCI  -1
MERRILL        CLOUDY    12   4  70 W6        30.39R WCI   3
$$

WIZ029-030-035-036-043>047-101000-
CENTRAL WISCONSIN

CITY           SKY/WX    TMP DP  RH WIND       PRES   REMARKS
WAUSAU         CLOUDY    13   4  67 W13       30.39R WCI  -2
MOSINEE        CLOUDY    14  10  85 NW10G17   30.40S WCI   1
MARSHFIELD     LGT SNOW  13   8  81 W8        30.40R WCI   2
STEVENS POINT  CLOUDY    13   8  77 W8        30.42R WCI   2
WAUPACA        CLOUDY    19  11  72 SW10      30.44S WCI   7
WAUTOMA        FLURRIES  14  10  84 SW7       30.46S WCI   4
WISC RAPIDS    CLOUDY    13   8  81 W7        30.44S WCI   3
CAMP DOUGLAS   PTCLDY    10   7  85 W7        30.46R WCI   0
$$

WIZ011>013-019>022-031-037>040-048>050-101000-
NORTHEAST WISCONSIN

CITY           SKY/WX    TMP DP  RH WIND       PRES   REMARKS
ANTIGO         CLOUDY    11   7  83 NW3       30.35S
SHAWANO        CLOUDY    19   7  58 W7        30.42S WCI  10
OCONTO         CLOUDY    18   6  60 W9        30.41S WCI   7
STURGEON BAY   CLOUDY    19   7  59 W12       30.40S WCI   7
GREEN BAY      LGT SNOW  20  13  74 W10       30.43S WCI   9
MANITOWOC      NOT AVBL
APPLETON       PTCLDY    16   5  62 W8        30.41S WCI   5
CLINTONVILLE   CLOUDY    18   9  68 W8        30.41F WCI   7
OSHKOSH        CLOUDY    16   9  74 W6        30.44S WCI   7
$$

WIZ032>034-041-042-053>061-101000-
SOUTHWEST WISCONSIN

CITY           SKY/WX    TMP DP  RH WIND       PRES   REMARKS
LA CROSSE      PTCLDY    13   5  70 W9        30.51R WCI   1
SPARTA         CLEAR     12   7  81 CALM      30.48S
VIROQUA        MOCLDY    11   9  92 W6        30.44S WCI   1
BOSCOBEL       CLOUDY    18  13  80 SW6       30.52R WCI  10
PRAIRIE DU CHI FLURRIES  17  13  81 W6        30.52R WCI   9
PLATTEVILLE    CLOUDY    17  16  95 SW5       30.49R WCI  10
$$

WIZ056-057-062-063-064-067-068-101000-
SOUTH CENTRAL WISCONSIN

CITY           SKY/WX    TMP DP  RH WIND       PRES   REMARKS
REEDSBURG      MOCLDY    14  10  83 W5        30.47R WCI   6
BARABOO/DELLS  CLEAR     14  10  83 W5        30.46R WCI   6
LONE ROCK      NOT AVBL
MINERAL POINT  CLOUDY    18  16  93 W6        30.46S WCI   9
MADISON        CLOUDY    17  11  77 W5        30.47R WCI  10
MIDDLETON      CLOUDY    19  14  81 W5        30.47S WCI  12
WATERTOWN      CLOUDY    18  13  82 W5        30.46S WCI  11
MONROE         CLOUDY    18  14  86 W9        30.47R WCI   6
JANESVILLE     CLOUDY    19  14  79 W6        30.48S WCI  11
$$

WIZ051-052-058>065-066-070>072-101000-
SOUTHEAST WISCONSIN

CITY           SKY/WX    TMP DP  RH WIND       PRES   REMARKS
MILWAUKEE      CLOUDY    20  12  71 W7        30.46S WCI  11
WAUKESHA       MOCLDY    18  12  79 W7        30.47R WCI   8
MILWAUKEE/TIMM CLOUDY    19  12  73 W9        30.47S WCI   9
RACINE         CLOUDY    19  12  74 W7        30.48S WCI  10
BURLINGTON     CLOUDY    23  19  85 CALM      30.47S
KENOSHA        CLOUDY    19  13  77 W8        30.47F WCI   9
FOND DU LAC    PTCLDY    15   7  70 W6        30.45S WCI   6
SHEBOYGAN      PTCLDY    17   9  70 W9        30.44S WCI   6
WEST BEND      PTCLDY    18  12  79 W6        30.45R WCI   9
JUNEAU         FLURRIES  15  11  85 CALM      30.46S
$$

LSZ147-162-101000-
LAKE SUPERIOR

STATION/POSITION TIME  TEMP    WIND        PRES    WAVE
                       AIR SEA DIR/SP/G            HT/PER
                 (UTC) (F)     (DEG/KT/KT) (MB)    (FT/S)
DEVILS ISLAND    0800   10     290/ 10/ 12 1032.7R
PORT WING        0840   11     300/ 16/ 20 1031.8R
SAXON HARBOR     0840   10     220/  7/ 10 1030.8S
$$

LMZ867-665-643>646-101000-
LAKE MICHIGAN

STATION/POSITION TIME  TEMP    WIND        PRES    WAVE
                       AIR SEA DIR/SP/G            HT/PER
                 (UTC) (F)     (DEG/KT/KT) (MB)    (FT/S)
CHAMBERS ISLAND  0840   19     270/  5/ 11 1028.4F
NORTHPORT PIER   0840   20     300/ 11/ 18 1028.8F
SISTER BAY       0820   20     320/ 18/ 22   N/A
ALGOMA LAKESHORE 0821          270/  9/ 11   N/A
KEWAUNEE LAKESHO 0830   18     290/  7/ 12 1029.7S
SHEBOYGAN LAKESH 0800   18     260/  7/  8 1032.0S
PORT WASHINGTON  0830   19     270/  5/  8 1032.5R
KENOSHA   LAKESH 0800   20     270/  9/ 13 1032.2
$$

TC  - TEMPERATURE IN CELSIUS
VSB - VISIBILITY IN STATUTE MILES
WCI - WIND CHILL INDEX
HX  - HEAT INDEX





USA.gov is the U.S. government's official web portal to all federal, state and local government web resources and services.